FW5274 Weather Reports


Display with metric or nautical units.
time (UTC)temp
F
wind
direction
speed
MPH
gust
MPH
rain 1hr
in
rain 24hr
in
rain mn
in
humidity
%
barometer
mb
20260506214534 76 302 14.0 25.0 0.00 0.00 0.00 32 1019.3
20260506213029 76 299 14.0 28.0 0.00 0.00 0.00 32 1019.3
20260506210032 75 325 11.0 21.0 0.00 0.00 0.00 33 1019.7
20260506204532 75 339 10.0 21.0 0.00 0.00 0.00 34 1019.8
20260506203035 76 354 10.0 20.0 0.00 0.00 0.00 37 1019.9
20260506200034 75 7 7.0 17.0 0.00 0.00 0.00 45 1020.1
20260506194532 73 46 5.0 13.0 0.00 0.00 0.00 48 1020.4
20260506193029 74 53 6.0 12.0 0.00 0.00 0.00 49 1020.4
20260506191531 74 51 5.0 12.0 0.00 0.00 0.00 48 1020.5
20260506190036 74 63 5.0 11.0 0.00 0.00 0.00 49 1020.5
20260506184535 74 66 5.0 10.0 0.00 0.00 0.00 49 1020.4
20260506183144 73 80 4.0 11.0 0.00 0.00 0.00 49 1020.5
20260506181534 72 49 5.0 12.0 0.00 0.00 0.00 49 1020.5
20260506180031 72 70 6.0 12.0 0.00 0.00 0.00 49 1020.4
20260506174533 71 87 3.0 7.0 0.00 0.00 0.00 51 1020.4
20260506173029 70 95 2.0 7.0 0.00 0.00 0.00 53 1020.4
20260506170031 67 104 2.0 6.0 0.00 0.00 0.00 56 1020.8
20260506164611 66 82 2.0 7.0 0.00 0.00 0.00 58 1021.0
20260506163035 65 105 2.0 7.0 0.00 0.00 0.00 60 1020.8
20260506161607 64 46 2.0 7.0 0.00 0.00 0.00 62 1021.0
20260506160035 63 66 4.0 8.0 0.00 0.00 0.00 64 1020.8
20260506154535 62 100 4.0 8.0 0.00 0.00 0.00 66 1020.5
20260506153152 61 104 4.0 8.0 0.00 0.00 0.00 70 1020.7
20260506143035 53 115 3.0 6.0 0.00 0.00 0.00 87 1020.4
20260506141532 51 120 3.0 6.0 0.00 0.00 0.00 90 1020.2
20260506140036 50 141 3.0 5.0 0.00 0.00 0.00 92 1020.1
20260506134536 49 119 3.0 5.0 0.00 0.00 0.00 93 1020.0
20260506131534 48 158 2.0 5.0 0.00 0.00 0.00 93 1019.6
20260506130142 48 181 3.0 4.0 0.00 0.00 0.00 93 1019.4
20260506124534 48 180 2.0 4.0 0.00 0.00 0.00 93 1019.3
20260506123033 47 180 2.0 3.0 0.00 0.00 0.00 92 1019.2
20260506121532 47 180 0.0 3.0 0.00 0.00 0.00 92 1019.2
20260506120034 47 180 0.0 2.0 0.00 0.00 0.00 91 1019.1
20260506114544 47 180 0.0 0.0 0.00 0.00 0.00 91 1019.0
20260506113035 48 180 0.0 0.0 0.00 0.00 0.00 90 1018.9
20260506111533 48 180 1.0 2.0 0.00 0.00 0.00 89 1018.8
20260506110035 49 160 2.0 3.0 0.00 0.00 0.00 89 1018.7
20260506103035 49 161 3.0 5.0 0.00 0.00 0.00 89 1018.5
20260506101531 50 175 3.0 5.0 0.00 0.00 0.00 89 1018.6
20260506100057 50 163 3.0 4.0 0.00 0.00 0.00 89 1018.5
20260506094534 49 117 1.0 3.0 0.00 0.00 0.00 90 1018.5
20260506093031 49 90 0.0 1.0 0.00 0.00 0.00 90 1018.5
20260506091535 49 90 1.0 2.0 0.00 0.00 0.00 90 1018.4
20260506090037 50 90 2.0 3.0 0.00 0.00 0.00 90 1018.3
20260506084530 50 90 2.0 3.0 0.00 0.00 0.00 90 1018.2
20260506083034 49 90 1.0 3.0 0.00 0.00 0.00 90 1018.2
20260506081606 49 110 1.0 4.0 0.00 0.00 0.00 89 1018.1
20260506080148 49 157 0.0 0.0 0.00 0.00 0.00 88 1017.9
20260506071530 51 167 2.0 4.0 0.00 0.00 0.00 87 1017.7
20260506044608 57 175 1.0 3.0 0.00 0.00 0.00 75 1016.8
20260506043034 58 247 0.0 1.0 0.00 0.00 0.00 73 1016.7
20260506041535 58 232 0.0 3.0 0.00 0.00 0.00 72 1016.5
20260506040040 59 182 1.0 3.0 0.00 0.00 0.00 70 1016.4
20260506034532 60 160 0.0 3.0 0.00 0.00 0.00 69 1016.2
20260506033106 61 148 2.0 3.0 0.00 0.00 0.00 67 1016.1
20260506031530 62 115 1.0 4.0 0.00 0.00 0.00 65 1015.9
20260506030032 64 97 3.0 6.0 0.00 0.00 0.00 63 1015.8
20260506024535 66 94 3.0 5.0 0.00 0.00 0.00 61 1015.5
20260506023034 68 93 3.0 6.0 0.00 0.00 0.00 57 1015.5
20260506021537 70 89 4.0 7.0 0.00 0.00 0.00 53 1015.5
20260506020111 72 81 5.0 9.0 0.00 0.00 0.00 51 1015.4
20260506014606 74 65 4.0 9.0 0.00 0.00 0.00 48 1015.4
20260506013035 75 58 4.0 8.0 0.00 0.00 0.00 46 1015.3
20260506011530 76 63 5.0 9.0 0.00 0.00 0.00 44 1015.3
20260506010033 77 53 4.0 8.0 0.00 0.00 0.00 42 1015.2
20260506004534 78 46 5.0 10.0 0.00 0.00 0.00 40 1015.2
20260506003035 79 52 5.0 10.0 0.00 0.00 0.00 37 1015.2
20260506001641 79 51 4.0 9.0 0.00 0.00 0.00 35 1015.1
20260506000106 79 57 4.0 7.0 0.00 0.00 0.00 36 1015.3
20260505234608 79 53 5.0 10.0 0.00 0.00 0.00 36 1015.4
20260505233031 79 51 5.0 10.0 0.00 0.00 0.00 36 1015.4
20260505231531 79 40 6.0 11.0 0.00 0.00 0.00 37 1015.5
20260505230032 79 49 5.0 10.0 0.00 0.00 0.00 37 1015.6
20260505224536 79 40 5.0 10.0 0.00 0.00 0.00 38 1015.7
20260505223035 79 53 3.0 7.0 0.00 0.00 0.00 38 1015.8
20260505221606 78 39 4.0 8.0 0.00 0.00 0.00 39 1015.9
20260505220032 77 42 4.0 9.0 0.00 0.00 0.00 40 1016.0